#timestamp,LO_Frequency,Hit,StdDev 
1512471615.6,286046995.2,Y
1512471635.4,286046995.3,P
1512471655.3,286046996.9,P
1512471675.1,286046996.6,P
1512471676.0,286046996.6,Y
1512471695.8,286047003.5,P
1512471715.7,286047004.9,N
1512471735.5,286047005.7,N
1512471755.3,286047005.3,N
1512471775.2,286047007.1,N
1512471795.9,286047010.3,N
1512471815.7,286047007.6,N
1512471835.5,286047007.6,N
1512471855.4,286047005.8,N
1512471875.2,286047005.2,N
1512471895.0,286047003.8,N
1512471895.9,286047003.8,N
1512471915.8,286047004.2,N
1512471935.6,286047003.9,N
1512471955.4,286047003.7,N
1512471975.3,286047004.2,N
1512471995.1,286047000.0,N
1512472015.8,286046997.4,N
1512472035.7,286046995.2,N
1512472055.5,286046996.8,N
1512472075.3,286046999.9,N
1512472095.2,286047001.3,N
1512472115.9,286047004.3,N
1512472135.7,286047002.7,N
1512472155.6,286047002.5,N
1512472175.4,286047001.1,N
1512472195.2,286046998.9,N
1512472215.0,286047000.1,N
1512472215.9,286047000.1,N
1512472235.8,286047000.3,N
1512472255.6,286047000.3,N
1512472275.4,286046996.5,N
1512472295.3,286047000.9,N
1512472315.1,286047002.0,N
1512472335.8,286046998.7,N
1512472355.7,286046998.3,N
1512472375.5,286046997.4,N
1512472395.3,286046994.0,N
1512472415.2,286046995.8,N
1512472435.9,286046995.1,N
1512472455.7,286046995.1,N
1512472475.6,286046995.6,N
1512472495.4,286046998.5,N
1512472515.2,286047000.3,N
1512472535.0,286046997.5,N
1512472536.0,286046997.5,N
1512472555.8,286046997.8,N
1512472575.6,286046997.9,N
1512472595.4,286046999.4,N
1512472615.3,286046996.8,N
1512472635.1,286046997.8,N
1512472655.8,286046995.0,N
1512472675.7,286046997.4,N
1512472695.5,286047003.0,N
1512472715.3,286047007.3,Y
1512472735.2,286047009.0,P
1512472755.9,286047004.5,N
1512472775.7,286047006.8,N
1512472795.6,286047006.1,N
1512472815.4,286047008.1,N
1512472835.2,286047011.6,Y
1512472855.1,286047005.4,P
1512472856.0,286047005.4,P
1512472875.8,286047006.9,P
1512472895.6,286047008.9,Y
1512472915.5,286046996.6,P
1512472935.3,286046998.5,N
1512472955.1,286046996.4,N
1512472975.9,286046990.3,N
1512472995.7,286046990.3,N
1512473015.5,286046992.7,N
1512473035.4,286046994.4,N
1512473055.2,286046993.7,N
1512473075.0,286047001.1,N
1512473075.9,286047001.1,N
1512473095.8,286047001.7,N
1512473115.6,286047003.8,N
1512473135.4,286047003.3,N
1512473155.2,286047003.7,N
1512473175.1,286047006.0,N
1512473176.0,286047006.0,N
1512473195.8,286047004.0,N
1512473215.6,286047000.1,N
1512473235.5,286047001.0,N
1512473255.3,286047000.4,N
1512473275.1,286047002.8,N
1512473295.9,286047003.4,N
1512473315.7,286047005.2,N
1512473335.5,286047009.8,N
1512473355.4,286047012.2,N
1512473375.2,286047009.3,N
1512473395.0,286047009.4,N
1512473395.9,286047009.4,N
1512473415.8,286047008.1,N
1512473435.6,286047009.0,N
1512473455.4,286047010.1,N
1512473475.2,286047010.8,N
1512473495.1,286047008.1,N
1512473496.0,286047008.1,N
1512473515.8,286047008.9,N
1512473535.6,286047006.3,N
1512473555.5,286047003.4,N
1512473575.3,286047002.8,N
1512473595.1,286047002.6,N
1512473615.9,286047003.4,N
1512473635.7,286047004.0,N
1512473655.5,286047003.6,N
1512473675.4,286047003.7,N
1512473695.2,286046998.6,N
1512473715.0,286046993.9,N
1512473715.9,286046993.9,N
1512473735.8,286046991.8,N
1512473755.6,286046991.4,N
1512473775.4,286046992.6,N
1512473795.2,286046991.4,N
1512473815.1,286046991.6,N
1512473816.0,286046991.6,N
1512473835.8,286046991.2,N
1512473855.6,286046990.3,N
1512473875.5,286046989.3,N
1512473895.3,286046988.3,N
1512473915.1,286046991.6,N
1512473935.9,286046990.7,N
1512473955.7,286046993.0,N
1512473975.5,286046990.7,N
1512473995.4,286046988.8,N
1512474015.2,286046988.4,N
1512474035.0,286046987.5,N
1512474035.9,286046987.5,N
1512474055.8,286046988.7,N
1512474075.6,286046990.9,N
1512474095.4,286046990.9,N
1512474115.2,286046991.2,N
1512474135.1,286046989.1,N
1512474136.0,286046989.1,N
1512474155.8,286046987.7,N
1512474175.7,286046987.9,Y
1512474195.5,286046993.3,P
1512474215.3,286046993.8,P
1512474235.1,286046999.1,N
1512474255.9,286046998.4,N
1512474275.7,286046999.5,N
1512474295.5,286046998.4,N
1512474315.4,286046997.6,N
1512474335.2,286046998.1,N
1512474355.0,286046998.7,N
1512474355.9,286046998.7,N
1512474375.8,286046995.4,N
1512474395.6,286046992.5,N
1512474415.4,286046990.7,Y
1512474435.3,286046994.2,P
1512474455.1,286046994.4,P
1512474456.0,286046994.4,P
1512474475.8,286046996.4,Y
1512474495.7,286046999.8,P
1512474515.5,286047001.5,N
1512474535.3,286047005.6,N
1512474555.2,286047005.4,N
1512474575.9,286047004.6,N
1512474595.7,286047009.1,N
1512474615.6,286047009.0,N
1512474635.4,286047007.4,N
1512474655.2,286047006.1,N
1512474675.0,286047006.7,N
1512474675.9,286047006.7,N
1512474695.8,286047004.8,N
1512474715.6,286047006.9,N
1512474735.4,286047007.3,N
1512474755.3,286047005.1,N
1512474775.1,286047003.2,N
1512474795.8,286047004.9,N
1512474815.7,286047004.8,N
1512474835.5,286047002.7,N
1512474855.3,286047002.9,N
1512474875.2,286047001.9,N
1512474895.9,286047001.3,N
1512474915.7,286047003.1,N
1512474935.6,286047005.8,N
1512474955.4,286047007.3,N
1512474975.2,286047005.6,N
1512474995.0,286047004.1,N
1512474995.9,286047004.1,N
1512475015.8,286047006.0,N
1512475035.6,286047003.6,N
1512475055.4,286047003.3,N
1512475075.3,286047001.0,N
1512475095.1,286046998.5,N
1512475115.8,286046996.6,N
1512475135.7,286047000.7,N
1512475155.5,286047001.4,N
1512475175.3,286047002.6,N
1512475195.2,286046998.1,N
